Miami Weather Center

Moon Phase Calendar



Online Cameras

 


      

Current Conditions in Miami Shores
10/19/2021 2:32:54 AM

75°F
Feels Like 75
Clouds
Humidity
66%
Pressure
30.03"
Wind
3 mph (NE)
Dew Point
63°F
UV Index
0/10 (Low)
Visibility
6 mi

Hourly Forecast

Date & Time Tue, Oct 19
2:00 AM
Tue, Oct 19
3:00 AM
Tue, Oct 19
4:00 AM
Tue, Oct 19
5:00 AM
Tue, Oct 19
6:00 AM
Tue, Oct 19
7:00 AM
Tue, Oct 19
8:00 AM
Tue, Oct 19
9:00 AM
Tue, Oct 19
10:00 AM
Tue, Oct 19
11:00 AM
Tue, Oct 19
12:00 PM
Tue, Oct 19
1:00 PM
Tue, Oct 19
2:00 PM
Tue, Oct 19
3:00 PM
Tue, Oct 19
4:00 PM
Tue, Oct 19
5:00 PM
Tue, Oct 19
6:00 PM
Tue, Oct 19
7:00 PM
Tue, Oct 19
8:00 PM
Tue, Oct 19
9:00 PM
Tue, Oct 19
10:00 PM
Tue, Oct 19
11:00 PM
Wed, Oct 20
12:00 AM
Wed, Oct 20
1:00 AM
Wed, Oct 20
2:00 AM
Wed, Oct 20
3:00 AM
Wed, Oct 20
4:00 AM
Wed, Oct 20
5:00 AM
Wed, Oct 20
6:00 AM
Wed, Oct 20
7:00 AM
Wed, Oct 20
8:00 AM
Wed, Oct 20
9:00 AM
Wed, Oct 20
10:00 AM
Wed, Oct 20
11:00 AM
Wed, Oct 20
12:00 PM
Wed, Oct 20
1:00 PM
Wed, Oct 20
2:00 PM
Wed, Oct 20
3:00 PM
Wed, Oct 20
4:00 PM
Wed, Oct 20
5:00 PM
Wed, Oct 20
6:00 PM
Wed, Oct 20
7:00 PM
Wed, Oct 20
8:00 PM
Wed, Oct 20
9:00 PM
Wed, Oct 20
10:00 PM
Wed, Oct 20
11:00 PM
Thu, Oct 21
12:00 AM
Thu, Oct 21
1:00 AM
Condition
Clouds

Clouds

Clouds

Clouds

Clouds

Clouds

Clouds

Clouds

Clouds

Clouds

Clouds

Clouds

Clouds

Clouds

Clouds

Clouds

Clouds

Clouds

Clouds

Clouds

Clouds

Clouds

Clouds

Clouds

Clouds

Clouds

Clouds

Clouds

Clouds

Clouds

Clouds

Clouds

Clouds

Clouds

Clouds

Clouds

Clouds

Clouds

Clouds

Clouds

Clouds

Clouds

Clouds

Clouds

Clouds

Clouds

Rain

Rain
Temperature 76°F75°F75°F76°F77°F77°F78°F79°F80°F80°F81°F81°F82°F81°F81°F81°F80°F80°F80°F80°F80°F80°F80°F79°F79°F78°F78°F79°F79°F79°F79°F79°F79°F81°F82°F82°F82°F81°F81°F81°F80°F80°F79°F80°F80°F80°F79°F79°F
Feels Like 76°F75°F76°F76°F77°F77°F78°F79°F80°F81°F82°F82°F82°F82°F82°F82°F81°F80°F80°F80°F80°F80°F80°F79°F79°F79°F79°F79°F79°F79°F79°F79°F79°F82°F83°F83°F83°F83°F82°F82°F82°F80°F79°F80°F80°F80°F79°F79°F
Cloudiness 35%20%36%52%68%81%89%28%55%70%67%66%61%88%94%96%97%96%95%100%92%94%95%91%93%100%100%100%100%100%100%100%100%100%97%97%98%100%100%100%100%100%100%100%100%100%100%100%
Visibility 6 mi6 mi6 mi6 mi6 mi6 mi6 mi6 mi6 mi6 mi6 mi6 mi6 mi6 mi6 mi6 mi6 mi6 mi6 mi6 mi6 mi6 mi6 mi6 mi6 mi6 mi6 mi6 mi6 mi6 mi6 mi6 mi6 mi6 mi6 mi6 mi6 mi6 mi6 mi6 mi6 mi6 mi6 mi6 mi6 mi6 mi6 mi6 mi
Precipitation 0%0%0%0%0%0%0%0%0%0%0%0%0%0%0%0%0%0%0%0%0%0%0%0%0%4%6%4%4%0%0%0%0%0%0%0%0%0%0%0%0%0%0%7%7%0%20%28%
Humidity 63%66%63%61%58%56%55%52%51%50%49%49%49%49%50%51%53%55%54%53%55%57%56%56%59%60%61%59%57%58%57%56%58%54%51%52%53%55%57%58%61%64%65%64%64%64%68%70%
Dew Point 62°F63°F62°F62°F61°F60°F60°F60°F60°F60°F60°F60°F60°F60°F60°F61°F61°F62°F62°F62°F62°F63°F63°F62°F63°F63°F64°F63°F62°F62°F63°F62°F63°F63°F62°F62°F63°F63°F64°F64°F65°F66°F67°F67°F66°F67°F68°F68°F
Pressure 30.03"30.03"30.03"30.03"30.03"30.06"30.06"30.09"30.09"30.12"30.09"30.09"30.06"30.06"30.06"30.06"30.06"30.09"30.09"30.12"30.12"30.12"30.12"30.09"30.09"30.09"30.09"30.09"30.09"30.12"30.12"30.15"30.15"30.15"30.15"30.15"30.12"30.09"30.09"30.09"30.09"30.09"30.12"30.12"30.12"30.12"30.12"30.09"
Wind Speed 12.2 mph12.6 mph12.5 mph13 mph13.6 mph13.3 mph13.4 mph15.2 mph15.8 mph16 mph16.1 mph16 mph15.6 mph15.2 mph15.4 mph15.5 mph15.7 mph16.1 mph16 mph15.8 mph15.4 mph15.5 mph15.1 mph14.8 mph15.3 mph15.4 mph14.7 mph13.8 mph14 mph14.4 mph14.8 mph15.6 mph16.4 mph16.4 mph16.8 mph16.5 mph16 mph15.7 mph15.7 mph16.1 mph16.9 mph17.6 mph17 mph17 mph16.4 mph15.9 mph15.6 mph15.1 mph
Wind
Direction
65°
ENE
61°
ENE
60°
ENE
61°
ENE
61°
ENE
64°
ENE
67°
ENE
69°
ENE
73°
ENE
74°
ENE
77°
ENE
78°
ENE
77°
ENE
74°
ENE
70°
ENE
70°
ENE
71°
ENE
74°
ENE
79°
E
80°
E
78°
ENE
78°
ENE
78°
ENE
79°
E
77°
ENE
74°
ENE
72°
ENE
68°
ENE
66°
ENE
67°
ENE
71°
ENE
72°
ENE
72°
ENE
74°
ENE
73°
ENE
74°
ENE
72°
ENE
70°
ENE
68°
ENE
68°
ENE
69°
ENE
68°
ENE
68°
ENE
72°
ENE
73°
ENE
76°
ENE
79°
E
83°
E

Daily Forecast

Date High Low Precip. Humidity
Today
Oct 19

Clouds
82 °F
75 °F
0%
49%
Wednesday
Oct 20

Rain
82 °F
78 °F
20%
52%
Thursday
Oct 21

Rain
83 °F
79 °F
40%
56%
Friday
Oct 22

Rain
82 °F
79 °F
98%
71%
Saturday
Oct 23

Rain
81 °F
79 °F
100%
71%
Sunday
Oct 24

Rain
84 °F
80 °F
66%
64%
Monday
Oct 25

Rain
83 °F
81 °F
91%
69%
Tuesday
Oct 26

Rain
84 °F
80 °F
57%
61%
Wednesday
Oct 27

Rain
83 °F
80 °F
22%
58%
Thursday
Oct 28

Clouds
84 °F
79 °F
0%
51%
Friday
Oct 29

Rain
84 °F
79 °F
47%
59%
Saturday
Oct 30

Clouds
81 °F
78 °F
7%
52%
Sunday
Oct 31

Rain
80 °F
77 °F
37%
56%
Monday
Nov 1

Rain
80 °F
76 °F
34%
57%
Tuesday
Nov 2

Rain
80 °F
76 °F
76%
62%
Wednesday
Nov 3

Rain
81 °F
77 °F
77%
61%

Temperature 8-14 Day Outlook



Precipitation 8-14 Day Outlook




Quick Links
Miami News
Miami Photos
Miami Videos




About Us
Contact Us
Site Map
Search Site
Advertise With Us
   
Miami.USCoast.info
THE MIAMI WEBSITE

Copyright 2021, Coastal Town
Privacy    |    Legal